GFSSW_sfc_temp_057.txt.gz
Temp
59 59 59 59 59 59 59 59 59 59 59 60 60 60 60 60 60 52 48 62 60 68 69 66 66 70 65 62 68 68 51 48 55 59 61 69 66 73 78 75 76 80 78 83 81
59 59 59 59 59 59 58 58 59 59 59 59 60 60 60 60 55 47 61 68 69 71 63 61 61 63 57 59 63 60 48 54 64 66 64 68 67 71 72 71 73 74 80 84 84
59 59 59 59 59 58 58 58 58 59 59 59 59 59 59 59 49 59 71 69 70 69 63 63 62 59 52 56 57 57 53 62 65 67 68 68 69 73 70 67 69 70 75 81 81
58 59 59 58 58 58 57 58 58 59 58 58 58 59 59 56 46 64 73 71 71 66 62 60 57 50 49 50 57 51 61 62 64 69 68 66 71 69 71 72 78 77 77 77 78
58 59 59 58 58 57 57 57 57 58 57 58 58 60 53 49 54 70 74 72 68 65 62 59 53 50 46 50 54 52 58 63 65 65 66 69 67 68 70 76 80 81 80 76 76
57 57 57 58 57 57 57 56 56 57 57 57 59 60 50 48 69 72 70 67 67 62 62 59 58 59 51 50 49 55 55 59 61 63 64 64 67 68 72 77 77 78 77 76 77
57 57 57 57 57 57 57 56 56 56 57 58 60 59 49 54 68 66 68 64 66 66 63 64 64 58 56 51 53 54 50 55 59 62 62 67 60 63 73 75 74 75 77 77 77
57 57 57 57 57 57 57 57 56 57 58 59 60 53 47 66 65 67 64 67 70 68 68 69 66 57 52 53 53 47 45 39 53 60 63 62 53 64 68 68 68 72 75 77 75
57 57 57 57 57 57 56 56 56 58 59 60 52 48 50 69 68 72 71 68 70 69 68 76 62 55 54 45 40 42 36 39 49 58 59 56 49 60 65 65 64 65 67 71 73
57 56 56 56 56 56 55 55 56 57 59 61 62 49 58 62 69 72 70 71 66 64 62 59 51 48 42 40 33 38 38 43 43 53 55 53 53 57 62 62 63 64 66 67 69
57 56 56 56 56 55 51 51 53 51 53 53 55 56 62 69 72 68 72 67 64 58 47 51 44 39 46 46 49 46 43 42 48 54 49 48 50 55 58 58 58 60 62 64 66
56 56 56 55 55 55 48 52 55 57 48 60 59 60 66 67 59 66 71 59 54 46 49 45 39 50 53 51 48 46 41 40 47 53 50 48 49 54 56 57 57 59 59 61 64
55 55 55 55 54 51 50 57 63 56 45 55 61 60 61 64 58 60 66 59 52 46 44 41 48 56 53 48 47 43 41 41 42 48 49 46 46 50 53 55 59 60 60 61 61
54 54 54 54 53 49 54 61 58 57 38 50 56 62 63 62 57 69 68 62 52 47 46 45 52 52 48 47 47 39 48 47 46 40 32 46 31 42 50 51 53 56 57 58 59
54 54 54 53 45 51 60 56 55 56 27 56 58 69 61 57 59 63 68 60 51 51 48 46 46 46 45 47 50 44 49 45 44 38 33 37 30 39 51 48 51 55 54 53 55
54 54 54 49 45 52 56 55 56 39 30 51 60 59 56 57 59 61 60 61 58 50 48 49 53 51 49 52 51 51 44 41 37 33 24 35 34 33 39 44 49 50 54 55 55
53 53 51 54 53 54 53 52 37 30 53 48 49 54 51 50 54 55 53 48 43 37 37 45 45 50 53 45 48 43 33 24 23 23 25 37 34 38 47 52 50 51 53 54 55
52 51 51 54 51 53 51 44 31 46 45 54 52 52 46 51 52 53 50 44 50 44 37 30 30 45 52 46 40 39 35 24 19 23 28 39 28 37 49 52 52 53 53 54 54
51 47 50 55 56 52 46 33 35 44 52 50 50 44 47 51 50 48 47 47 48 45 35 33 35 49 52 50 47 37 32 38 29 28 21 30 37 45 51 49 51 50 52 51 52
42 45 51 57 56 50 40 38 42 53 53 52 41 46 38 43 44 45 45 51 48 50 47 40 31 45 49 49 48 42 44 27 26 21 20 28 30 33 43 47 49 49 50 51 53
44 47 55 57 54 44 34 38 47 56 55 49 44 42 43 40 42 44 45 51 53 49 46 40 34 37 42 39 37 36 32 32 29 26 18 18 28 41 42 46 46 49 51 50 51
40 42 56 56 41 35 36 44 51 52 54 51 49 46 43 43 40 44 43 47 54 49 40 41 33 28 34 45 47 41 36 33 21 21 29 25 29 49 51 50 48 48 53 52 53
39 39 53 53 31 33 40 46 50 50 49 47 45 46 45 40 34 43 45 52 51 47 42 40 31 26 31 36 40 36 37 37 35 29 28 25 30 48 48 49 51 49 50 52 52
39 36 41 42 39 35 35 39 43 52 49 48 46 45 40 38 40 37 42 49 50 49 54 47 33 31 27 32 33 33 39 42 38 29 30 31 35 42 45 45 46 48 48 48 52
38 34 36 32 35 34 35 39 40 40 47 46 42 41 38 32 36 37 40 43 47 49 43 38 30 32 35 39 39 37 37 39 36 37 31 35 36 42 45 42 44 47 50 51 54
36 34 35 33 36 36 36 35 38 41 41 40 37 40 39 33 36 35 37 35 36 41 36 35 29 33 33 39 39 36 39 41 41 41 40 39 37 46 43 44 46 46 48 50 53
39 39 37 34 33 32 32 35 37 39 42 45 41 37 37 40 42 44 44 44 41 37 34 33 30 29 28 37 36 31 38 39 41 44 42 33 42 43 42 42 44 45 47 49 51

GFSSW_sfc_temp_060.txt.gz
Temp
59 60 60 59 59 59 59 59 59 59 59 60 60 60 60 60 59 51 46 60 58 67 68 64 64 64 63 59 61 63 50 47 54 58 60 69 65 69 75 72 72 75 73 77 78
59 59 59 59 59 59 58 58 58 59 59 59 59 59 59 60 55 49 59 67 68 70 61 59 58 60 55 55 59 56 45 53 63 65 63 68 65 68 69 69 68 70 76 79 81
59 59 59 59 59 59 58 58 58 59 59 59 59 59 59 59 49 58 71 68 69 68 61 60 59 57 49 52 54 50 47 58 64 66 66 65 66 71 67 65 68 68 72 76 75
58 59 59 58 58 58 58 58 57 57 58 58 58 59 59 54 44 61 72 70 71 64 61 57 54 48 46 49 54 47 55 61 63 68 65 65 69 67 69 69 74 73 74 74 75
58 58 58 58 58 58 58 57 57 57 57 57 58 59 53 47 53 67 73 71 65 63 60 56 52 49 44 47 50 48 52 57 62 64 64 66 65 66 67 73 76 76 75 73 73
58 58 57 58 58 58 57 57 57 56 56 57 58 60 48 45 65 69 67 65 64 59 59 57 54 56 50 48 47 51 52 54 58 62 64 63 65 67 70 74 74 74 73 73 72
57 57 57 57 57 57 57 57 57 56 57 58 59 58 47 53 65 63 65 61 64 63 60 60 60 56 54 48 50 51 46 51 55 60 61 64 58 61 69 71 70 70 71 72 72
57 57 57 57 57 57 57 57 56 57 57 58 60 52 46 64 63 63 61 64 65 64 64 63 63 55 50 50 50 44 43 38 49 54 60 61 51 61 65 66 65 68 68 68 68
57 57 56 56 56 57 56 55 56 58 58 59 51 46 49 68 64 68 66 65 66 65 64 73 59 52 52 43 39 40 34 37 47 53 54 52 48 59 63 63 63 64 65 67 67
57 56 56 56 56 56 55 55 56 57 59 60 60 47 56 59 66 69 68 67 63 61 59 57 49 45 41 39 32 36 36 40 41 49 50 47 48 55 59 60 60 62 64 65 66
56 56 55 55 56 55 51 51 51 49 50 52 54 54 59 66 68 65 69 65 62 57 45 49 43 39 44 45 45 43 40 40 45 50 47 46 47 51 57 57 56 58 60 62 64
55 55 55 55 55 55 47 53 53 53 45 57 56 57 63 64 56 62 67 57 53 45 47 44 38 48 51 49 46 43 39 38 44 50 46 46 46 52 54 55 57 57 58 59 60
54 54 55 54 54 50 49 56 58 54 43 53 58 57 58 61 55 57 64 56 50 43 43 40 46 53 50 46 45 41 39 39 40 45 45 43 40 44 52 54 56 58 57 58 58
54 54 54 54 52 48 53 58 54 54 38 49 55 60 60 59 54 66 66 60 50 45 45 43 49 50 45 46 46 37 47 46 43 38 30 43 27 38 45 47 51 54 54 55 56
54 54 54 53 45 51 57 53 52 54 26 54 55 65 61 57 58 60 64 58 49 48 45 44 45 44 43 45 48 43 47 43 42 36 31 34 27 34 43 42 45 50 53 54 55
53 54 54 48 45 51 54 52 54 38 29 48 56 54 52 54 56 60 61 61 56 48 46 46 51 49 48 50 48 48 42 39 34 31 24 32 31 29 37 43 46 50 53 54 54
53 53 50 52 51 51 51 51 37 29 50 45 46 50 47 48 51 53 51 47 44 39 38 44 43 48 51 43 45 41 32 24 23 23 24 35 31 35 44 49 50 50 52 54 53
52 52 51 53 50 50 50 43 30 43 43 51 50 48 44 48 48 51 47 41 49 45 37 33 32 45 50 44 39 36 34 23 19 21 23 36 28 34 46 50 52 52 51 52 53
51 48 50 52 55 51 46 32 34 41 49 47 48 41 42 47 46 45 44 45 48 47 37 36 37 49 51 49 46 35 31 35 28 24 19 27 34 43 49 48 49 50 51 50 52
43 46 50 54 53 49 40 37 41 51 51 49 39 43 36 40 40 39 43 49 48 50 47 41 33 46 49 48 45 40 42 27 24 19 19 26 29 32 41 46 46 47 47 52 54
44 46 54 53 52 44 34 37 45 53 52 47 42 41 41 39 39 38 41 48 51 48 48 42 37 38 43 40 36 35 31 31 28 23 17 17 28 39 40 43 43 45 50 53 54
41 42 53 54 42 33 35 42 49 50 52 49 46 44 40 41 38 39 40 46 54 51 41 43 36 31 36 44 46 39 35 32 21 21 29 26 29 46 48 44 45 47 50 51 53
37 38 50 52 31 33 39 43 46 47 47 46 43 44 42 37 34 40 42 50 50 48 43 41 33 27 31 35 37 34 35 34 32 28 28 25 30 47 46 45 49 45 46 48 50
38 36 39 39 37 35 34 37 41 49 46 46 44 43 39 36 38 36 38 47 49 48 53 46 35 32 26 31 32 31 37 37 34 29 29 31 34 42 44 44 44 43 45 46 48
37 32 35 30 32 31 33 36 38 38 43 43 39 38 34 31 33 35 38 41 46 48 43 39 32 33 35 38 38 36 36 37 34 35 30 35 35 41 44 44 42 44 45 48 49
35 33 34 31 34 33 34 33 35 38 37 37 34 38 37 31 35 34 34 35 36 40 37 35 29 31 30 36 36 34 38 38 38 38 37 37 36 48 47 43 43 44 46 47 48
37 38 37 33 31 31 31 34 36 36 39 42 38 35 34 38 40 41 40 42 40 36 34 34 30 30 27 35 34 29 36 38 39 41 39 33 41 43 43 43 44 45 46 47 47

GFSSW_sfc_temp_063.txt.gz
Temp
60 60 60 60 60 60 59 59 59 59 60 60 60 60 60 60 60 60 55 68 65 67 69 71 73 73 74 72 74 74 64 60 63 63 67 73 71 79 82 78 80 83 83 86 90
59 59 59 59 59 59 59 58 58 58 59 59 59 59 60 59 58 56 66 66 67 69 70 69 68 70 69 69 72 69 63 64 70 71 70 72 71 73 73 76 77 79 84 87 90
59 59 59 59 59 59 58 58 58 58 58 59 59 59 59 60 56 69 71 67 69 71 71 70 69 68 65 67 67 67 62 67 70 73 74 73 70 74 71 69 77 75 80 85 87
59 59 59 58 59 58 58 58 58 58 58 58 58 58 60 58 56 71 71 69 70 71 70 68 67 64 62 62 67 61 65 68 71 73 72 71 72 70 72 73 78 80 83 83 85
58 59 58 58 58 58 58 58 58 57 56 57 58 59 58 58 63 74 72 72 71 70 68 66 64 63 60 62 63 62 64 67 70 71 71 72 69 69 71 76 79 81 82 82 84
58 58 57 58 58 58 57 57 57 57 56 56 58 60 56 56 74 74 72 70 71 70 68 67 66 67 63 62 62 63 64 65 68 70 69 68 70 70 72 76 76 77 78 81 81
57 57 57 57 57 57 57 57 56 56 57 58 59 60 54 63 74 71 72 71 71 70 68 70 70 67 66 61 64 63 59 63 65 68 67 69 64 66 69 73 71 75 77 78 80
57 57 56 57 56 57 57 56 56 56 58 58 59 58 56 71 73 71 71 72 71 72 71 73 72 68 65 65 61 58 57 55 62 63 67 67 59 65 69 69 68 71 74 76 78
57 56 56 56 56 56 56 56 57 58 58 59 57 56 59 72 70 76 75 73 72 72 70 74 71 63 63 58 55 54 51 51 55 62 62 62 58 64 68 66 65 67 71 74 76
56 56 55 55 56 56 55 56 58 60 61 62 62 54 65 64 71 74 77 74 71 70 67 65 64 59 58 56 47 48 49 51 52 58 60 59 58 64 66 65 64 65 67 71 73
56 55 55 55 55 55 55 60 61 58 58 59 60 58 63 70 73 72 76 72 70 66 58 59 56 52 55 56 56 53 51 50 55 58 57 57 58 61 65 65 64 64 64 66 68
55 55 55 55 55 55 54 62 60 61 53 61 61 61 65 68 61 69 74 65 62 56 57 55 51 58 58 55 53 52 50 50 54 58 56 56 55 61 64 64 66 66 64 64 66
54 55 55 55 54 57 60 62 64 62 54 58 62 61 64 67 61 63 70 65 60 55 55 51 55 58 57 54 52 51 50 49 49 53 56 53 54 55 62 64 65 67 66 65 64
54 54 55 54 57 57 62 63 63 64 50 55 60 65 65 65 60 70 72 67 60 55 54 54 58 56 54 53 55 48 55 52 50 48 44 52 42 51 57 58 62 64 65 67 67
54 54 54 54 57 62 62 62 64 63 37 58 61 73 67 63 64 65 71 66 57 56 55 52 54 54 52 54 56 51 55 51 50 49 45 48 43 50 54 55 59 62 64 67 67
54 54 53 54 55 62 62 61 64 48 36 53 61 58 59 61 61 65 64 67 63 57 56 56 60 58 57 56 56 55 52 49 47 46 39 44 43 46 52 56 58 64 65 67 68
53 53 54 58 62 62 61 62 48 40 54 49 52 56 54 54 56 57 56 55 52 46 47 52 52 56 58 52 54 53 48 40 37 38 39 44 42 47 55 59 60 61 64 67 67
52 52 54 59 61 59 62 54 38 46 47 55 55 55 50 54 53 54 52 50 54 51 48 43 40 50 56 54 51 49 48 40 28 33 39 45 39 49 57 61 62 63 63 64 66
51 57 59 61 61 60 58 45 44 47 52 50 53 47 48 51 52 51 50 49 52 53 43 42 42 53 54 56 55 45 43 48 40 38 35 42 47 53 58 58 60 60 61 62 64
51 56 60 61 59 59 52 43 47 54 54 52 44 49 43 47 47 48 47 52 50 54 53 46 38 49 50 54 53 50 52 39 41 29 28 39 41 44 51 55 58 58 60 61 63
53 56 62 59 60 56 46 46 49 56 56 50 47 46 48 46 47 46 47 52 54 52 53 43 37 42 46 44 44 46 44 42 41 38 31 31 41 52 53 56 55 58 60 60 62
50 51 61 59 51 42 46 47 49 53 57 53 52 50 47 47 45 46 45 50 56 54 44 44 42 38 42 49 51 49 46 46 34 32 37 35 38 57 57 57 56 58 61 62 62
47 47 59 58 43 44 46 47 49 50 51 50 48 49 49 46 41 45 47 51 54 53 46 46 37 32 36 41 45 42 45 46 45 41 37 33 40 55 55 57 59 57 59 60 60
49 47 51 49 46 43 39 42 43 52 49 49 48 49 46 44 47 43 44 50 52 51 52 49 41 37 33 39 42 39 43 45 43 35 38 40 43 50 53 54 56 57 58 58 58
46 42 41 43 43 41 40 40 40 42 47 48 45 43 41 37 40 40 45 46 49 51 50 47 35 39 42 44 45 43 43 44 42 43 36 42 43 49 53 55 56 57 56 56 57
46 44 43 41 39 38 40 40 39 40 41 42 41 42 42 38 40 37 42 42 41 48 45 44 36 39 38 42 43 40 44 44 45 45 44 44 43 54 57 58 55 56 55 55 57
44 45 44 41 39 38 40 40 39 41 44 46 43 41 39 43 47 47 47 47 46 42 42 40 39 37 33 41 41 34 42 45 46 49 47 42 50 57 54 54 54 54 55 55 57

GFSSW_sfc_temp_069.txt.gz
Temp
61 60 60 60 60 60 60 60 60 60 60 60 60 60 60 60 60 72 73 78 78 70 71 86 87 88 89 87 91 92 75 71 75 77 80 90 85 88 90 86 91 95 94 96 99
60 60 60 60 60 60 60 60 60 60 60 60 60 60 60 60 69 79 72 71 71 71 80 82 81 86 83 84 87 82 74 75 84 86 85 89 89 87 82 81 83 88 96 98 98
60 60 60 60 59 59 59 60 60 60 60 59 59 59 60 63 72 80 71 71 70 72 85 86 87 85 79 85 84 82 74 82 85 88 90 88 88 91 85 79 82 82 90 94 95
59 59 59 59 59 59 59 59 59 60 59 59 58 59 60 70 66 83 72 71 71 80 84 83 82 78 76 76 85 77 82 84 85 88 88 85 89 86 86 86 90 86 90 91 91
58 59 59 58 58 58 58 58 59 59 59 58 58 58 66 73 78 82 72 73 81 85 83 81 78 79 74 80 82 78 81 84 86 86 86 87 84 84 86 91 92 91 87 88 89
58 58 58 58 58 58 58 58 58 58 58 58 59 59 67 68 89 89 87 85 86 85 82 83 81 82 78 78 78 81 81 81 83 84 83 81 82 84 86 91 90 88 87 89 89
57 57 57 57 57 57 57 57 57 58 58 58 60 68 72 76 90 91 88 87 88 85 81 84 84 78 80 74 82 79 73 76 78 81 79 82 75 77 86 89 87 87 87 89 91
57 57 57 57 57 57 57 57 57 58 58 59 60 72 70 89 92 88 89 86 88 88 85 86 86 80 78 81 76 71 72 66 77 79 80 78 66 80 87 85 84 85 87 88 89
57 56 56 56 57 57 57 56 58 59 59 60 66 71 72 77 81 88 90 83 86 85 85 85 82 76 77 69 67 70 62 66 71 81 79 76 69 80 86 82 81 82 84 85 87
56 56 56 56 57 56 56 57 59 59 63 72 77 68 77 76 83 85 89 86 80 81 77 76 75 70 72 68 58 64 66 68 66 75 74 71 72 78 83 80 79 80 81 82 85
56 56 56 56 56 56 60 72 69 68 72 72 74 73 75 81 84 81 87 82 80 76 67 75 67 63 68 71 71 68 65 64 70 75 70 69 70 75 80 80 78 79 80 80 81
56 56 56 56 56 56 64 76 73 75 65 79 78 77 80 81 73 79 87 74 72 65 72 69 62 70 73 72 68 66 63 63 69 74 70 67 67 74 78 78 79 79 80 80 81
55 55 56 56 56 61 79 75 84 82 67 74 77 76 78 80 73 75 81 76 70 67 68 64 68 73 69 67 63 64 62 63 63 70 71 66 62 67 74 78 79 81 82 83 81
54 55 55 55 58 85 78 82 86 80 61 67 70 76 78 79 71 83 83 77 72 66 69 67 73 68 65 63 66 59 69 67 63 60 54 69 53 66 71 72 74 77 79 79 79
54 54 55 53 75 79 79 85 84 76 47 69 72 85 80 74 74 75 84 77 66 67 69 63 67 64 62 64 68 62 69 65 63 60 59 60 56 62 71 68 71 74 76 78 79
54 54 54 68 78 82 85 83 77 57 46 64 72 69 70 73 73 77 74 79 77 69 69 68 75 71 67 70 69 68 65 63 62 59 49 57 57 58 66 68 71 74 76 77 78
54 54 56 76 76 85 84 75 57 50 67 63 65 70 69 67 69 71 68 67 62 56 56 64 65 72 72 63 68 64 55 44 44 47 47 62 58 61 68 71 74 73 75 77 79
53 51 62 79 84 82 78 65 47 62 62 69 66 68 63 68 68 69 66 62 68 65 58 50 48 64 67 64 60 59 56 45 33 39 47 57 51 62 72 74 75 75 76 76 76
50 73 76 81 81 80 69 56 57 62 63 62 64 61 63 67 62 64 63 62 66 67 49 48 52 58 63 65 65 58 52 60 48 51 46 53 59 67 69 69 71 72 73 73 74
68 77 80 80 80 74 64 54 63 66 65 64 55 61 56 62 61 62 61 65 61 66 66 58 46 61 61 64 65 61 63 47 51 38 36 47 52 52 62 65 68 69 70 72 74
67 72 76 83 77 69 58 63 65 69 66 60 58 57 59 58 61 59 59 64 62 62 62 60 49 52 58 55 53 56 54 54 53 41 37 38 47 63 62 67 67 69 71 72 73
70 66 79 81 64 67 62 62 56 64 68 64 63 60 58 59 56 57 56 60 60 63 56 59 49 42 49 61 63 59 43 46 36 40 47 47 48 66 65 69 69 69 71 74 75
66 71 78 75 58 62 66 65 65 62 62 61 59 62 63 57 51 56 58 65 64 60 56 56 46 39 46 54 56 54 57 56 54 50 42 39 47 65 67 67 69 69 73 74 74
67 64 72 73 69 59 59 58 57 64 61 62 59 61 58 56 60 54 56 61 63 62 54 54 49 44 38 45 42 37 50 55 50 41 46 49 52 56 57 59 67 70 72 74 74
70 63 62 60 63 60 60 59 56 56 62 62 57 58 56 50 53 53 58 60 62 61 58 55 44 48 51 54 54 53 52 53 47 50 45 50 50 55 59 62 68 72 72 72 72
60 60 65 60 62 58 56 57 56 56 56 54 53 57 57 51 53 50 55 55 54 60 57 57 44 47 45 52 54 49 54 55 55 55 54 53 52 63 67 70 70 69 70 70 70
67 66 59 55 61 59 59 56 55 57 57 58 56 54 53 56 59 60 60 59 57 54 52 51 46 41 38 50 49 45 54 55 56 59 58 51 58 64 64 66 67 68 66 67 70

GFSSW_sfc_temp_072.txt.gz
Temp
60 60 60 60 60 60 60 60 61 60 60 60 60 60 60 60 60 69 68 78 78 71 71 82 86 86 87 82 85 86 70 66 70 73 77 88 86 90 92 86 89 93 93 97 99
60 60 60 60 60 60 60 60 61 61 60 60 60 60 60 60 64 70 75 73 74 73 79 79 79 84 79 80 82 77 70 69 78 81 81 86 87 89 84 82 83 88 94 98 99
60 60 59 60 59 59 59 59 60 60 60 60 60 59 59 61 67 77 72 72 72 73 82 86 86 83 77 82 80 78 71 77 80 84 86 85 86 91 84 79 83 83 88 94 94
59 59 60 59 59 59 59 59 59 60 60 60 59 59 59 64 64 80 73 72 72 80 82 83 81 76 75 74 81 74 80 81 82 85 84 82 87 85 88 88 90 89 90 90 88
58 59 59 58 58 58 58 58 59 59 59 59 59 59 65 68 74 81 73 74 80 81 81 82 78 77 72 76 79 76 79 83 85 84 84 85 82 83 85 92 94 92 90 88 86
58 58 58 58 58 58 58 58 58 58 58 59 59 59 65 64 89 86 86 83 83 85 85 84 81 83 76 77 76 80 81 81 83 83 84 80 81 82 85 91 90 91 89 88 88
57 57 57 57 57 58 57 57 57 58 58 59 60 66 68 71 92 91 89 87 89 86 81 86 85 79 80 74 81 79 73 77 78 81 78 82 75 75 85 88 86 87 89 87 88
57 57 57 57 57 58 58 58 57 58 59 59 60 67 65 89 93 90 90 87 90 89 86 87 86 79 76 79 76 71 71 64 75 78 79 78 66 78 85 84 82 85 87 88 88
57 56 57 57 57 57 57 57 58 60 59 60 62 67 68 81 82 89 89 84 87 87 86 87 82 75 75 68 65 67 59 63 68 79 78 75 68 78 84 83 81 83 85 86 86
57 56 56 57 57 57 56 56 60 59 62 71 74 67 75 76 84 86 90 87 82 81 78 77 74 68 69 65 53 60 63 66 66 75 77 73 72 78 81 81 80 81 82 83 84
57 56 56 56 57 56 58 69 66 64 70 69 73 72 78 84 86 82 87 83 80 75 66 73 65 61 66 69 70 68 65 63 69 75 72 71 70 73 78 80 79 79 79 80 81
56 56 56 56 57 56 60 70 76 77 66 78 80 80 83 84 73 79 86 74 72 64 71 67 61 70 73 71 68 67 63 62 67 73 70 69 68 72 75 76 79 79 78 79 80
55 55 56 56 56 59 72 78 86 85 66 72 80 78 79 81 73 76 81 76 69 66 67 63 68 75 71 67 64 64 61 60 61 68 71 68 63 67 73 76 79 81 82 82 80
55 55 55 55 59 80 79 85 88 83 58 67 72 77 80 80 71 83 85 77 72 65 67 67 73 70 67 65 66 57 68 67 64 60 53 67 51 63 69 71 75 77 79 80 81
55 55 55 53 70 76 81 87 86 76 44 70 74 86 82 74 76 76 85 78 66 67 68 63 67 66 64 64 68 61 69 64 63 59 58 58 53 59 68 66 71 75 78 79 81
54 54 54 70 71 81 88 85 78 56 45 66 74 71 71 74 74 78 76 80 76 67 69 66 74 71 68 71 70 70 65 62 61 56 45 55 54 55 62 67 72 76 76 78 79
54 54 54 73 74 87 85 76 56 48 71 65 66 72 70 69 71 73 69 67 62 56 56 64 64 70 72 63 68 66 57 45 42 43 41 56 49 57 67 73 75 73 75 77 78
53 52 60 75 83 84 77 64 46 61 65 72 69 68 63 69 69 70 67 63 69 65 55 49 43 61 57 53 57 56 53 47 34 38 44 56 41 55 65 75 76 77 76 77 77
52 73 72 77 83 80 67 53 55 63 68 63 64 60 62 68 69 67 64 63 66 67 53 50 50 65 56 58 61 53 46 58 47 50 45 49 49 58 66 69 73 73 73 73 75
60 70 78 83 82 74 61 52 61 71 69 66 55 60 55 61 60 62 62 67 65 66 67 57 47 61 63 61 59 50 54 40 41 30 32 45 49 50 58 59 68 70 70 72 74
62 68 76 84 79 67 55 61 67 73 70 61 58 57 57 56 59 58 59 65 65 63 64 59 51 51 55 53 51 51 47 53 51 46 36 35 44 59 58 64 63 69 72 72 73
65 63 80 82 63 66 62 67 62 68 70 65 64 61 57 58 56 57 56 60 65 63 55 55 46 43 49 59 63 60 55 51 33 36 43 40 40 64 63 65 66 69 72 74 75
57 67 80 77 56 60 65 65 67 65 64 62 60 63 62 56 50 56 58 66 68 62 56 57 48 38 41 53 51 40 43 46 39 44 34 32 43 64 58 62 65 65 71 73 73
61 59 69 71 70 62 59 58 59 68 65 64 61 62 58 55 59 54 57 64 66 64 57 56 50 44 37 44 50 39 41 47 41 35 42 46 50 58 57 56 59 64 67 67 67
64 62 64 56 60 60 60 59 56 57 65 65 58 58 57 51 53 53 58 60 63 60 59 56 45 49 51 53 53 52 52 51 48 51 45 49 50 57 60 56 60 65 64 63 62
60 57 61 57 61 59 56 57 57 59 58 54 52 56 57 51 53 50 55 55 53 60 57 57 44 49 45 51 52 49 53 54 54 55 55 55 54 64 67 68 67 65 64 64 65
65 65 60 53 57 54 54 58 57 58 59 60 58 55 53 56 60 60 60 58 57 53 52 51 48 42 37 49 49 41 49 52 52 56 54 47 54 59 58 64 64 61 61 62 64

GFSSW_sfc_temp_075.txt.gz
Temp
60 60 60 60 60 60 60 60 60 60 61 61 61 60 60 60 59 60 54 68 68 72 72 77 77 77 76 70 74 73 55 54 60 63 68 78 76 82 84 81 84 88 89 88 91
60 60 60 60 60 60 59 59 59 60 60 60 60 60 60 59 55 57 71 73 73 72 73 71 69 74 65 67 68 64 57 60 69 71 70 75 78 80 76 77 76 81 89 92 88
59 59 59 59 59 59 59 59 59 59 60 60 60 60 59 59 55 67 75 72 72 72 75 76 75 72 62 66 65 67 60 68 72 75 77 76 77 82 78 69 75 77 82 86 84
59 59 59 59 59 59 58 59 60 60 60 59 59 59 59 56 52 71 73 72 72 74 75 73 70 60 57 58 67 61 70 72 74 78 77 75 79 77 77 77 83 82 83 83 79
58 58 58 58 58 58 58 58 58 58 59 59 59 59 56 54 60 74 73 73 74 74 71 69 65 62 57 62 65 62 67 73 76 77 77 79 76 76 77 82 84 85 84 81 78
58 58 58 58 58 58 57 58 57 57 58 58 59 59 54 52 78 77 76 74 77 72 73 72 68 71 62 62 59 66 68 69 72 72 73 72 74 74 79 82 82 84 82 82 79
57 57 57 57 57 57 57 57 57 58 58 59 60 61 57 58 81 78 79 75 78 79 75 77 77 69 67 61 67 67 61 66 69 68 66 72 66 69 77 80 78 80 79 81 79
57 57 57 57 58 58 58 57 57 58 58 59 60 58 52 78 77 76 79 80 82 82 80 79 78 68 63 66 66 59 57 48 61 68 71 64 57 71 75 75 74 78 79 79 77
57 56 57 57 57 57 57 57 57 60 60 60 54 53 57 79 77 82 80 79 81 81 79 85 71 63 64 55 49 52 46 51 59 69 69 65 61 71 76 75 71 73 75 77 75
57 56 56 56 57 57 56 56 59 57 60 64 67 55 65 70 80 82 82 82 77 76 73 69 62 55 53 48 39 47 50 55 56 65 67 64 64 71 73 74 73 71 71 73 74
57 56 56 56 56 56 55 58 52 52 60 60 64 66 73 83 84 79 83 78 75 68 55 63 51 47 54 58 60 59 57 55 62 68 62 60 60 64 69 68 66 66 68 68 71
56 56 56 56 56 56 52 57 67 68 58 71 70 72 78 81 72 76 81 68 65 55 61 55 50 61 66 66 62 60 55 54 61 65 63 60 60 64 67 65 65 66 66 68 69
55 55 56 56 55 52 58 67 77 73 55 66 74 73 75 76 70 71 76 70 63 57 58 52 59 69 67 63 60 58 54 54 54 61 63 59 55 58 65 66 69 70 69 68 68
55 55 55 54 55 65 67 77 76 72 45 60 69 73 76 74 67 79 80 71 64 58 60 57 65 65 62 60 62 53 61 61 59 54 43 57 42 52 59 61 66 70 72 67 68
55 55 55 54 53 59 72 75 73 65 32 67 70 81 76 68 71 72 81 72 61 61 60 55 59 59 57 60 65 57 63 59 58 49 44 49 41 49 57 58 61 66 71 72 68
55 55 54 60 55 64 73 74 66 45 36 63 70 67 66 69 70 73 72 73 71 62 61 59 68 64 61 62 59 60 57 55 51 45 34 46 44 46 51 56 60 68 68 71 67
55 55 52 61 60 72 74 63 43 37 67 62 63 68 64 63 66 68 65 60 52 47 48 57 60 62 64 53 58 54 44 32 31 31 33 50 45 47 55 60 62 63 71 65 67
54 53 54 61 68 71 64 50 35 55 59 69 65 63 57 63 63 65 62 57 61 57 51 45 40 56 60 51 45 43 42 31 24 25 33 47 41 49 58 63 66 69 64 66 64
52 60 61 65 66 66 54 39 44 55 64 62 61 55 55 62 61 59 58 57 61 61 45 42 45 61 61 58 52 43 38 46 34 37 32 38 46 54 58 60 65 64 65 60 61
49 56 64 73 70 62 48 45 52 63 67 63 51 56 49 54 54 55 55 62 59 60 56 49 38 56 59 58 53 47 50 36 34 26 25 34 39 42 51 56 61 62 61 62 62
50 54 69 75 68 54 43 51 60 70 68 59 54 52 52 51 53 52 54 60 62 58 56 47 40 44 50 48 46 41 36 40 39 35 29 26 36 53 48 52 56 62 64 62 62
50 49 69 69 51 52 49 60 59 63 67 63 60 56 52 53 51 50 51 55 64 59 48 47 39 33 41 51 53 48 38 38 30 30 33 32 32 53 50 50 56 58 61 62 60
46 53 68 66 45 48 57 60 61 61 60 60 57 58 57 50 43 52 53 62 64 60 51 49 37 28 33 41 45 41 44 41 39 36 31 30 31 55 53 56 57 55 59 63 65
49 48 57 58 58 52 50 52 55 64 61 63 59 58 53 49 53 48 51 59 63 61 57 53 40 35 28 36 42 37 42 44 37 28 31 35 38 44 52 51 55 57 62 64 63
53 50 53 47 48 50 52 53 52 52 60 59 53 54 50 42 46 46 51 54 58 56 51 46 35 41 44 48 48 46 46 48 44 40 35 43 41 45 52 50 53 57 60 59 60
45 46 50 48 52 50 51 50 51 52 54 51 48 53 52 43 46 43 47 45 44 50 45 45 35 41 39 47 47 45 48 49 48 48 47 43 43 51 53 53 49 53 58 59 61
49 51 49 46 48 47 47 49 49 52 55 56 53 50 48 51 53 51 49 49 47 43 41 39 36 33 30 43 42 34 44 47 48 50 42 35 41 48 46 48 47 46 52 51 52

GFSSW_sfc_temp_078.txt.gz
Temp
60 60 60 60 60 60 60 59 60 59 60 60 61 60 60 60 59 55 52 64 64 70 71 74 73 72 70 66 68 66 48 48 53 57 61 72 68 77 81 78 87 88 82 84 85
60 60 60 60 60 59 60 59 59 59 59 60 60 60 59 59 51 51 66 70 71 72 70 68 66 69 60 63 64 59 48 53 62 64 63 70 71 74 75 75 76 78 86 86 83
59 59 59 59 59 59 59 59 59 59 60 60 60 59 59 58 50 62 73 71 72 72 70 69 68 65 57 59 61 59 55 62 66 69 70 70 72 77 72 68 72 75 81 82 80
58 58 59 59 59 58 58 58 59 59 59 59 59 59 59 52 50 69 73 72 72 70 69 67 62 54 53 54 61 54 64 66 69 71 71 70 75 73 73 73 79 79 80 78 77
58 58 58 58 58 58 58 58 58 58 58 58 58 59 53 49 56 73 73 73 70 70 68 63 57 55 50 56 59 55 61 67 70 71 70 74 71 72 74 77 81 82 80 77 76
57 58 57 58 58 58 58 57 57 57 57 58 59 59 50 48 71 74 72 70 72 67 69 64 63 66 58 56 54 61 61 63 65 65 66 68 71 73 76 78 78 80 79 78 75
57 57 57 57 57 57 58 57 57 57 58 58 59 59 52 55 75 72 72 68 73 73 69 71 70 66 60 59 59 62 55 59 60 62 62 66 62 65 73 74 74 75 77 78 78
57 57 57 57 57 57 57 57 57 58 59 59 59 54 49 70 67 68 70 71 76 75 74 75 71 62 58 59 61 55 50 43 55 63 65 63 55 67 70 70 72 73 74 77 75
57 56 56 57 57 57 57 56 57 59 61 60 51 50 52 72 70 74 73 72 76 77 75 82 68 60 60 50 44 46 41 47 53 62 62 60 57 66 70 69 68 73 70 73 75
57 56 56 56 56 57 56 56 57 57 59 62 63 51 60 67 75 78 75 77 73 71 68 64 57 52 48 44 36 43 44 49 49 58 58 56 56 65 69 67 68 71 72 68 69
57 56 56 56 56 55 52 53 54 51 54 57 60 60 69 77 80 75 78 74 70 64 52 58 49 44 50 52 55 53 51 50 56 61 55 54 55 60 62 63 65 67 64 65 66
56 56 56 56 56 55 49 53 60 62 53 63 66 65 72 75 66 72 78 65 61 53 56 51 45 57 59 59 56 54 51 50 55 60 56 55 54 61 62 62 62 62 62 64 62
55 55 56 56 54 51 53 61 70 64 52 62 68 65 66 70 64 67 72 66 59 53 52 48 54 63 61 57 55 54 50 50 51 57 56 53 51 55 62 62 65 65 66 64 65
55 55 55 55 55 55 58 69 68 64 43 55 63 68 71 70 63 76 75 67 59 54 55 52 62 60 57 55 56 46 54 53 53 49 42 53 39 49 54 56 61 62 61 62 63
55 55 55 55 48 55 67 66 64 61 32 63 65 77 71 65 67 68 76 66 58 58 55 53 55 54 53 56 57 51 56 51 51 46 41 45 36 48 51 52 56 59 62 63 65
55 55 55 54 47 57 64 65 62 43 34 59 66 64 61 64 66 68 68 68 67 58 57 57 63 59 58 60 58 58 50 47 45 41 34 45 39 45 48 53 54 59 64 65 66
55 55 53 58 57 62 62 58 41 34 60 58 59 62 58 59 62 63 61 55 52 43 45 55 56 61 61 51 53 50 40 31 27 30 35 46 40 46 54 57 59 59 60 64 68
55 53 53 57 55 62 59 50 34 50 54 64 61 60 53 58 58 59 55 49 55 52 45 40 39 52 57 49 43 41 39 27 22 23 32 42 36 45 54 58 62 62 60 61 64
54 54 55 59 59 60 53 39 42 51 60 57 57 50 51 57 55 54 51 51 54 52 43 39 42 56 59 54 52 41 37 44 35 33 29 32 41 51 58 57 60 61 61 61 58
51 50 57 67 64 57 47 42 49 61 63 61 49 54 46 51 50 49 49 58 55 56 54 46 37 52 55 54 52 45 47 33 33 19 26 32 36 38 46 47 52 53 56 59 61
49 48 63 70 65 53 40 46 55 65 62 56 52 50 50 47 50 50 51 57 60 56 54 47 39 42 47 44 40 39 37 36 34 29 21 25 30 46 44 48 48 54 56 56 61
43 43 62 66 51 48 45 55 55 61 62 59 56 52 48 50 48 50 49 53 61 59 48 47 38 32 40 48 51 44 39 36 27 28 33 30 32 53 52 53 51 51 59 59 60
45 46 61 61 43 44 52 55 58 57 57 56 53 56 53 47 41 50 52 60 61 55 48 46 35 28 32 38 42 41 43 42 39 32 28 22 29 52 52 52 54 53 57 60 62
44 43 52 54 52 46 46 49 51 61 57 57 53 54 49 47 50 44 48 56 59 57 57 51 37 33 27 34 37 35 40 42 37 26 28 32 37 45 49 47 51 52 53 59 61
47 43 47 41 45 45 48 47 46 48 55 56 50 52 48 41 45 45 48 50 54 55 49 43 34 37 40 43 44 43 43 44 38 39 32 40 39 43 44 44 46 49 51 54 55
43 41 44 43 47 45 43 41 45 46 48 47 46 49 50 42 44 42 44 43 43 46 40 41 33 36 36 44 43 41 43 44 44 45 44 42 39 45 48 48 48 48 49 50 50
46 47 43 41 42 39 42 43 43 47 47 50 48 46 46 49 51 50 47 46 46 42 39 37 32 30 27 40 39 32 40 41 42 41 39 32 40 43 43 47 46 46 48 49 50

GFSSW_sfc_temp_084.txt.gz
Temp
59 59 59 59 58 59 59 59 59 59 59 59 59 59 59 59 58 50 47 62 59 68 70 67 68 67 63 60 61 63 48 44 50 54 58 65 60 66 73 70 75 75 74 80 79
59 59 59 59 59 58 58 58 58 59 59 59 59 59 59 59 52 45 61 68 68 70 65 64 61 64 59 56 58 57 45 50 57 59 59 61 60 64 65 66 68 71 77 80 78
59 59 59 59 59 58 58 58 58 58 59 58 58 58 59 58 46 60 71 68 70 70 67 65 65 62 52 55 56 50 47 53 60 62 62 61 63 67 63 61 66 68 72 76 78
58 59 59 58 58 58 58 58 58 58 58 58 57 58 58 50 48 64 73 70 70 67 65 62 58 52 50 51 56 50 59 60 58 63 59 62 66 65 64 66 72 72 73 74 73
58 58 58 58 58 58 58 58 58 57 57 57 57 58 49 44 54 67 72 71 66 65 63 60 56 53 49 52 54 50 54 60 63 60 59 63 61 63 64 70 73 74 74 72 73
58 58 57 57 58 58 58 57 57 57 57 58 57 58 46 44 64 68 67 65 66 61 64 61 58 59 53 50 51 56 54 56 58 59 60 60 63 61 64 70 70 70 69 70 71
57 57 57 57 57 57 57 57 56 57 58 58 58 56 46 54 65 66 66 62 65 67 63 63 63 59 56 50 53 53 49 55 56 58 57 59 56 59 67 69 67 69 70 69 69
57 57 57 57 57 57 57 57 57 57 58 59 58 50 48 63 62 62 63 65 67 67 65 67 64 57 54 54 54 48 45 40 52 55 61 58 49 61 66 62 63 66 68 71 70
57 57 57 57 57 57 56 56 57 58 59 59 48 45 50 67 63 68 67 66 68 68 67 75 62 54 54 46 41 42 36 38 49 55 55 52 48 60 64 62 61 61 63 65 67
58 57 56 56 57 56 55 56 58 58 58 59 58 47 56 61 68 69 67 68 65 64 63 60 52 47 43 42 34 38 38 41 44 52 50 51 50 56 59 59 60 60 60 61 63
58 57 56 56 56 56 51 49 51 48 50 53 56 56 63 70 72 65 67 65 63 58 49 51 46 42 47 47 49 46 43 42 48 55 48 49 50 53 56 56 56 58 59 59 60
57 57 57 56 56 55 49 51 57 57 48 57 58 59 65 67 60 64 70 60 55 49 51 47 42 51 53 51 49 46 42 42 48 53 48 48 50 53 54 55 57 58 59 59 58
56 56 56 56 55 49 50 59 62 57 47 55 59 58 59 64 58 59 66 60 54 49 48 44 50 56 53 49 48 45 42 43 45 49 50 48 48 48 53 55 58 58 59 58 58
56 56 56 55 54 53 57 62 60 58 41 51 56 60 62 61 57 67 68 63 52 50 49 47 54 54 48 48 49 41 50 50 48 42 35 47 36 48 51 52 53 56 57 58 59
55 56 56 55 47 53 62 61 60 59 32 58 57 68 62 59 60 61 67 61 53 52 50 49 49 47 47 50 52 47 52 49 46 40 35 40 33 42 48 50 52 58 56 59 60
55 56 55 50 46 53 58 61 61 45 34 56 61 57 55 58 59 62 61 63 60 52 50 51 55 54 53 54 54 53 46 43 39 35 27 39 37 38 42 48 49 56 58 59 62
55 54 52 55 52 56 58 58 43 36 57 54 56 59 55 53 56 57 55 50 47 40 40 48 51 54 56 47 47 45 38 28 25 27 32 40 34 40 47 54 52 52 55 58 57
54 52 51 54 51 54 58 50 35 49 50 59 58 58 52 56 53 54 50 45 49 45 40 37 38 50 54 49 43 39 38 29 21 25 32 38 30 38 50 51 53 54 52 54 53
51 48 49 52 52 52 51 40 43 50 55 53 55 50 50 54 54 52 49 47 50 49 40 36 39 52 54 51 49 39 34 40 31 27 23 29 36 44 50 50 51 52 53 53 52
44 43 51 56 55 53 46 42 49 58 58 57 47 52 45 49 49 47 47 54 51 52 49 43 35 47 50 50 47 43 45 31 27 18 18 27 31 34 42 45 48 48 49 52 53
43 45 56 56 56 49 39 43 53 59 56 53 50 48 49 48 49 47 48 54 56 50 51 46 39 40 44 42 40 37 34 32 31 27 19 22 28 40 41 43 44 48 51 53 53
40 42 56 56 45 39 39 48 52 55 56 53 53 51 48 49 47 48 48 52 56 53 46 44 39 32 38 42 47 43 38 34 25 25 31 28 30 48 45 44 45 46 50 51 53
37 37 52 52 37 36 42 47 52 50 51 50 48 50 49 46 41 46 49 56 56 52 48 45 36 28 32 38 42 37 39 37 33 29 26 26 30 48 47 47 45 44 48 50 52
40 36 41 43 41 38 40 39 43 51 50 50 48 49 44 42 47 42 45 53 56 54 57 51 37 35 31 38 36 33 38 38 33 21 29 31 35 43 45 41 42 44 46 48 51
40 38 39 32 36 36 41 42 40 40 49 49 44 44 38 34 40 41 45 46 51 54 49 43 32 37 40 41 39 38 39 39 33 36 29 37 36 43 41 40 42 45 46 48 49
37 38 39 37 44 42 42 40 41 43 42 41 39 41 40 36 39 35 42 42 41 47 43 38 33 34 35 41 40 37 41 40 40 39 38 38 37 44 42 44 43 44 46 46 48
39 40 42 41 40 38 40 41 41 44 43 45 43 39 38 40 45 47 47 47 46 42 39 36 33 30 29 36 35 30 37 38 38 40 38 32 38 41 41 43 42 42 45 46 48

GFSSW_sfc_temp_087.txt.gz
Temp
60 60 59 59 59 59 59 59 59 59 59 59 60 60 59 59 59 56 56 70 66 68 70 74 75 75 75 73 74 73 64 59 62 61 66 72 71 78 81 78 81 83 84 88 88
59 60 59 59 59 59 59 59 58 59 59 59 59 59 59 59 56 53 67 67 68 70 73 72 70 72 69 69 70 70 62 62 67 69 69 73 73 74 73 75 76 79 86 88 89
59 59 59 59 58 58 59 59 59 58 58 58 58 58 58 59 53 69 71 68 69 72 75 74 73 71 66 69 66 63 63 65 67 71 73 71 71 76 72 70 76 76 81 85 87
59 59 59 58 58 58 58 58 58 58 58 58 57 58 58 54 60 71 72 70 70 73 74 72 70 67 64 63 67 62 66 66 69 71 71 69 73 71 73 74 81 81 83 83 83
58 58 58 58 58 58 58 58 58 58 58 57 57 57 56 56 65 73 71 72 72 73 72 69 68 66 64 65 65 63 65 67 71 71 70 73 69 71 72 78 82 82 80 80 83
58 58 58 58 58 57 57 57 57 57 57 58 57 58 54 58 73 74 72 72 73 73 71 71 70 71 66 65 65 66 66 67 69 70 69 68 72 69 74 79 79 79 80 82 80
58 57 58 58 57 57 57 57 57 57 58 58 58 58 54 65 73 74 73 73 74 74 70 73 73 70 69 64 68 66 62 64 67 69 67 70 64 65 74 74 75 77 79 81 81
57 57 57 57 57 57 57 57 56 57 58 59 58 57 57 71 72 71 72 72 73 75 74 75 75 71 69 68 64 61 61 57 66 65 68 67 59 69 74 72 71 73 75 77 80
58 57 57 57 57 57 56 56 57 57 59 60 56 55 60 71 68 74 75 73 73 74 74 77 74 66 67 62 59 57 55 54 59 66 66 64 60 69 74 71 69 73 74 75 76
58 57 57 57 57 56 55 57 58 60 60 60 60 54 65 67 72 72 73 75 72 72 69 68 67 63 61 59 50 51 52 54 55 63 64 62 62 67 71 70 69 71 73 74 75
57 57 56 57 57 56 54 57 58 55 56 61 64 62 66 74 77 72 73 71 71 68 61 62 60 55 59 60 59 57 54 53 58 64 58 61 61 65 70 70 72 73 74 74 74
57 57 57 56 56 55 54 61 65 65 56 62 62 62 69 71 64 69 75 67 64 59 61 59 55 62 62 60 57 55 54 54 59 62 58 61 60 65 68 69 71 72 73 74 76
56 56 56 56 55 54 55 64 68 68 57 60 62 62 64 68 62 65 71 67 63 58 58 56 60 61 59 58 55 56 53 54 54 60 61 58 57 61 67 68 71 72 73 73 73
55 55 56 55 56 59 60 67 67 67 52 56 60 64 65 67 62 73 74 70 63 59 58 58 65 59 58 56 58 52 60 58 56 53 49 57 45 57 62 64 65 69 72 70 71
55 55 55 55 57 59 65 67 66 64 41 61 61 72 67 65 67 64 73 70 61 59 59 58 57 56 56 59 60 57 60 58 57 53 49 53 49 55 62 59 64 66 67 68 69
55 55 55 55 53 60 64 65 66 50 39 57 63 60 59 64 65 66 67 71 69 61 60 60 64 62 63 61 62 61 58 54 51 51 42 51 50 52 56 59 62 65 66 66 68
55 54 53 57 60 63 64 65 50 42 59 54 57 62 60 59 61 63 60 58 56 50 51 58 59 64 63 58 59 57 53 44 41 42 41 52 47 51 59 63 63 62 64 66 68
53 52 53 57 62 61 64 58 41 51 52 61 59 59 55 58 58 59 57 55 58 57 54 48 46 57 61 59 56 54 53 44 33 38 43 52 42 52 60 64 64 64 64 66 67
51 54 57 61 60 58 62 47 48 52 56 54 56 52 52 57 56 56 54 54 57 57 50 46 46 58 57 58 58 50 47 52 44 42 38 46 51 56 61 61 62 62 62 63 64
48 51 59 62 61 62 57 46 52 57 58 55 45 50 45 51 48 50 51 58 55 59 60 53 45 53 54 57 54 52 55 43 44 32 31 43 44 45 53 56 58 59 59 61 63
52 55 63 62 62 60 50 49 54 59 59 52 47 44 48 47 51 50 51 56 59 58 58 55 49 49 52 50 51 48 47 44 45 40 33 33 42 53 53 56 55 57 60 61 61
49 51 62 61 55 50 50 49 50 55 58 54 53 50 48 48 46 45 45 52 59 58 51 51 47 42 46 56 53 52 51 49 37 36 37 36 37 58 58 58 57 58 61 62 61
47 47 60 59 45 45 48 49 53 51 52 51 48 49 48 42 38 45 50 58 59 56 52 53 45 38 41 47 49 47 49 49 46 45 39 35 40 57 56 58 60 58 59 60 60
51 44 51 52 49 44 41 44 45 52 51 52 49 50 45 43 43 38 45 53 57 55 56 54 44 41 37 43 47 42 46 49 46 37 39 41 45 51 55 55 58 57 58 58 59
49 42 44 40 44 44 43 44 42 41 50 50 45 44 40 35 39 38 43 46 51 54 53 50 38 43 46 47 47 46 46 47 44 46 40 45 46 51 55 56 57 57 57 56 57
45 45 47 44 45 43 42 42 42 42 41 41 40 45 43 36 39 36 39 42 41 49 48 47 41 43 41 46 46 43 46 47 47 47 47 47 46 57 57 56 54 55 55 55 56
45 47 45 43 42 40 41 40 40 43 46 47 42 40 38 42 45 46 46 45 43 42 44 45 44 40 35 42 41 36 44 46 48 50 48 42 50 54 52 53 54 55 54 54 55

GFSSW_sfc_temp_093.txt.gz
Temp
61 61 60 60 60 60 60 60 60 61 60 60 60 60 60 60 60 68 71 80 82 73 71 89 89 89 90 85 89 88 75 73 75 80 84 90 87 93 96 89 92 96 95 98 101
60 60 60 60 60 60 60 60 60 60 60 60 60 60 59 60 66 73 81 72 72 71 82 86 84 87 84 85 83 78 72 75 84 87 84 87 90 90 88 88 89 92 97 100 100
60 60 60 60 60 60 59 60 60 60 60 60 60 59 59 63 68 82 74 71 71 73 86 92 91 87 82 86 84 81 72 82 85 88 87 85 87 91 86 82 88 89 93 96 97
60 60 60 59 59 59 59 59 59 60 60 59 59 59 58 67 67 84 73 71 71 83 87 87 87 82 80 78 85 77 84 84 85 86 84 82 87 85 87 87 94 94 94 95 94
59 59 59 59 59 59 59 59 59 59 59 59 59 59 62 69 78 80 72 73 81 83 85 85 82 83 78 82 83 79 82 85 86 84 83 85 82 83 85 91 93 93 93 92 92
58 59 59 59 59 59 59 58 58 58 58 58 60 58 66 68 90 87 87 84 85 87 86 87 84 87 83 83 81 83 81 83 84 84 84 80 81 83 86 90 89 90 90 93 93
58 58 58 58 58 58 58 58 57 58 58 59 60 66 70 76 90 91 89 88 91 89 84 89 90 84 85 79 85 83 75 79 81 82 81 84 76 78 87 90 86 87 89 91 92
58 58 58 58 58 58 58 58 57 58 59 60 60 71 71 89 93 89 90 87 91 92 90 90 90 86 83 86 79 75 77 70 81 82 82 79 69 84 87 83 82 85 86 88 90
58 57 57 58 58 58 58 57 58 59 59 61 65 71 73 76 81 89 91 85 86 87 87 87 87 82 81 74 72 74 67 71 76 83 80 76 72 84 85 83 82 83 85 87 89
58 57 57 57 57 57 56 56 58 58 63 71 75 67 76 77 85 87 90 89 83 82 80 79 79 74 76 73 63 68 69 72 72 80 78 75 75 82 85 84 82 83 85 86 87
58 57 56 57 57 56 58 68 61 60 68 72 74 76 78 84 89 84 87 83 83 78 70 76 71 67 72 76 76 75 71 70 75 80 75 73 74 78 83 83 83 84 85 86 87
57 57 57 56 56 56 65 73 77 74 63 74 75 79 82 84 75 81 87 76 74 68 74 72 65 75 78 77 73 71 67 68 74 78 74 72 72 77 80 81 83 83 84 85 87
56 56 56 56 56 59 73 77 87 84 69 71 75 75 78 81 75 77 82 78 73 69 71 67 73 76 74 72 68 69 66 67 68 74 75 71 68 72 79 82 83 84 85 85 85
56 56 56 56 56 79 75 83 87 84 63 65 69 72 76 79 71 85 85 79 74 69 72 72 77 73 70 69 71 63 74 71 68 65 60 74 58 70 76 77 80 81 82 83 84
56 55 55 55 64 74 80 85 86 79 45 72 71 83 77 71 74 74 86 80 70 72 72 69 71 70 68 70 74 67 75 71 69 65 64 65 62 68 76 73 77 79 82 82 83
55 55 54 62 64 77 83 83 79 58 47 66 73 71 69 71 72 75 75 79 78 71 73 71 79 74 73 76 75 75 71 69 68 66 55 63 63 64 70 73 76 81 80 81 82
55 55 58 74 74 84 84 76 58 52 70 64 67 71 71 67 69 69 66 64 61 55 55 65 68 75 76 69 74 71 63 53 52 54 53 68 64 66 74 77 76 76 78 79 80
54 53 62 77 82 80 77 67 50 62 63 69 69 69 64 68 68 68 65 61 66 65 60 56 53 68 74 70 66 67 64 52 41 46 54 65 56 65 76 77 78 79 77 77 77
52 79 80 80 82 80 71 58 60 63 66 64 67 63 61 65 65 64 63 63 65 66 55 53 54 70 72 73 71 64 59 67 56 57 51 57 64 72 77 75 74 74 75 74 76
65 75 78 81 81 75 67 56 63 67 67 67 57 62 55 60 58 59 58 64 62 65 67 58 48 64 68 69 70 64 68 53 55 39 40 52 56 58 65 68 72 71 73 74 76
65 71 78 83 80 71 62 65 65 69 68 62 61 58 57 55 60 57 56 63 65 63 65 59 49 53 62 59 59 61 58 59 57 52 40 40 50 68 65 68 68 71 74 74 75
71 67 80 83 66 72 66 65 53 66 68 65 64 61 56 56 53 53 55 59 66 65 56 61 53 47 53 64 68 65 61 58 44 44 50 46 47 69 70 71 70 71 73 76 77
66 71 81 77 62 67 66 64 64 63 63 61 57 60 61 54 48 56 57 65 67 63 54 59 47 44 50 58 62 58 60 59 57 55 48 44 50 69 68 68 71 72 74 75 76
67 63 72 76 71 61 60 60 59 63 61 62 59 59 56 53 56 52 53 57 62 63 57 58 53 46 44 48 49 47 53 58 55 46 47 49 53 62 66 68 72 72 74 74 73
69 62 61 62 63 59 59 59 56 55 60 60 57 54 51 44 47 49 53 55 59 59 58 52 44 51 53 55 55 55 54 56 53 54 47 53 54 60 67 68 71 73 73 71 72
58 60 68 63 56 57 51 56 54 51 53 52 52 52 51 46 47 42 51 49 49 55 51 50 39 49 46 52 54 52 56 58 58 58 58 58 57 68 71 73 71 67 68 68 69
66 65 61 53 56 55 58 52 50 52 56 55 51 51 49 51 55 56 53 56 51 48 49 42 43 40 40 52 52 46 55 57 59 62 60 54 61 67 66 65 64 65 66 66 67

GFSSW_sfc_temp_096.txt.gz
Temp
61 61 61 60 60 60 60 60 61 61 60 60 61 60 60 60 60 65 64 78 79 75 74 86 86 85 86 82 86 87 71 68 71 75 80 89 87 94 96 93 93 95 95 98 100
61 61 61 61 60 60 60 60 60 60 60 60 60 60 60 60 62 66 77 74 74 74 82 81 82 84 79 80 82 78 69 70 81 83 81 86 89 90 88 89 88 91 97 99 100
60 60 60 60 60 60 59 60 60 60 60 60 60 60 59 61 64 75 79 74 73 75 84 88 89 85 78 82 80 77 69 78 82 85 87 86 85 90 87 84 88 87 91 97 98
60 60 60 60 60 60 60 59 60 60 60 60 60 60 59 65 61 79 74 73 73 83 82 81 84 80 76 75 83 74 79 80 81 87 86 82 85 82 86 87 93 93 95 94 92
59 59 59 59 59 59 59 60 59 59 59 59 59 60 62 65 72 78 73 74 80 80 80 81 81 80 75 80 82 78 80 84 85 85 85 85 81 82 84 91 94 94 93 91 91
58 59 59 59 58 58 58 58 59 58 58 59 59 60 62 63 90 84 86 82 84 82 82 85 83 86 81 81 80 83 82 82 84 83 84 79 79 81 84 90 90 90 89 91 91
58 58 58 58 58 58 58 58 58 58 58 59 60 65 65 70 92 91 89 86 88 87 83 88 89 84 84 78 86 84 77 79 80 82 79 83 75 76 85 87 86 86 88 89 91
58 58 58 58 58 58 58 58 57 58 59 60 60 66 64 90 94 90 90 88 92 91 90 91 91 84 82 85 81 76 76 67 78 80 81 80 66 80 88 85 83 84 85 87 89
58 57 57 58 58 58 57 57 58 59 60 60 62 66 68 81 83 90 91 85 88 89 90 91 86 79 80 73 69 72 63 67 72 84 81 78 70 80 86 83 81 82 83 85 85
58 57 57 57 57 57 56 56 59 58 61 69 72 66 75 77 85 88 91 89 83 83 80 78 77 71 73 70 58 64 66 70 70 80 80 75 73 79 84 82 81 82 83 84 85
58 57 57 57 57 56 58 65 63 60 64 67 73 72 80 86 90 84 88 84 83 78 68 75 68 64 69 72 73 73 71 69 75 82 77 74 74 78 83 84 82 82 82 82 84
57 57 57 57 56 56 58 67 77 78 66 72 70 73 81 85 76 81 88 75 74 66 73 69 63 73 77 77 74 72 68 68 73 78 76 73 72 77 80 80 82 82 83 84 85
56 56 57 56 56 57 65 74 85 85 67 74 76 74 77 81 74 77 82 77 72 68 69 65 71 78 74 72 70 70 66 67 67 74 76 72 67 71 78 81 83 84 85 85 84
56 56 56 55 56 75 73 83 88 85 58 66 70 74 76 78 70 84 85 78 73 68 71 70 77 74 71 68 71 63 73 71 68 65 58 72 55 68 75 77 80 81 82 82 84
55 56 56 54 62 72 81 87 87 79 41 70 73 85 80 70 73 74 86 77 67 70 71 67 71 70 68 70 74 67 75 71 70 65 63 64 58 65 74 72 76 80 81 82 84
55 56 55 65 65 73 82 84 79 56 44 66 73 71 69 71 73 76 74 78 77 67 68 69 79 76 73 76 76 76 71 69 68 64 52 60 60 61 68 73 77 81 82 82 82
55 55 55 71 72 85 85 76 55 51 71 65 67 71 70 67 69 70 66 62 59 52 52 62 66 74 76 68 74 71 63 51 49 50 49 65 61 64 73 77 78 78 80 80 80
54 53 63 76 83 83 77 64 49 64 65 72 70 71 66 70 69 69 66 62 67 63 57 51 49 65 71 68 64 66 63 52 41 44 51 63 54 62 76 80 80 80 80 79 78
53 75 76 83 84 81 68 56 59 63 68 66 67 64 64 68 67 66 65 64 67 67 55 53 54 69 71 72 69 62 55 64 52 53 47 54 61 71 75 75 77 77 77 76 76
58 68 79 84 83 75 64 55 66 70 70 68 58 63 57 60 59 63 61 65 64 69 70 60 48 61 65 69 70 65 68 51 52 35 39 50 54 57 62 67 71 72 73 75 76
60 67 78 85 80 70 59 62 67 73 69 64 61 60 59 58 60 58 57 65 67 66 67 62 53 50 60 57 57 59 57 57 56 51 39 39 49 67 65 68 68 71 73 74 75
65 63 81 82 64 68 65 64 56 69 71 68 66 63 59 59 57 57 57 60 67 67 58 62 53 45 52 63 67 63 56 56 40 42 48 45 45 66 67 69 69 71 73 75 76
60 68 80 77 58 63 63 67 68 66 66 65 61 63 63 58 51 58 59 67 66 62 56 59 48 42 48 58 61 57 60 59 56 54 46 42 48 69 66 66 68 68 72 73 75
60 62 70 71 71 62 62 63 63 67 63 64 62 63 58 54 58 53 55 59 64 63 57 58 51 47 41 48 49 44 49 53 53 45 47 49 52 60 64 65 69 71 73 74 74
62 63 62 59 61 60 62 62 60 59 64 64 60 58 53 46 52 52 56 56 60 60 59 52 44 50 51 53 55 54 54 54 50 53 47 52 53 59 64 66 69 72 69 69 70
59 58 62 60 62 58 55 59 58 59 57 56 54 55 53 47 50 45 52 52 49 56 54 49 41 47 45 52 52 51 55 56 57 57 57 57 56 67 70 70 66 66 66 66 67
64 68 60 56 58 56 58 57 55 56 59 59 55 52 51 53 56 57 57 54 55 49 48 43 44 42 38 51 49 43 53 55 58 61 59 51 57 63 62 62 61 62 64 64 63

GFSSW_sfc_temp_102.txt.gz
Temp
61 61 61 61 60 60 60 60 60 60 61 61 60 60 60 60 60 55 49 55 57 67 69 69 71 73 71 69 72 74 57 53 57 64 66 76 72 80 83 81 85 84 82 85 88
60 60 60 60 60 60 60 60 60 60 60 60 61 60 60 60 55 49 59 65 68 71 66 64 65 68 60 66 68 64 58 60 69 71 67 73 73 77 77 76 78 79 83 85 89
60 60 60 60 60 60 59 60 60 60 60 60 60 60 60 59 48 53 68 66 69 71 68 69 67 66 58 64 62 60 58 68 72 75 77 74 76 75 75 69 73 75 80 81 80
59 60 60 60 60 59 59 59 60 60 60 60 60 59 59 54 49 71 74 70 70 71 69 66 63 57 54 55 60 56 66 69 72 76 73 73 78 78 78 78 82 78 81 81 79
59 59 59 59 59 59 59 59 59 59 59 59 59 59 53 46 50 72 73 71 71 69 66 64 59 57 53 58 58 57 64 71 74 75 74 76 73 75 76 80 83 83 82 77 78
58 58 58 58 58 58 58 58 57 58 58 59 59 59 50 44 71 73 71 69 69 65 66 64 63 64 59 59 60 64 67 69 71 72 73 69 68 70 76 82 81 80 77 76 78
58 58 58 58 58 58 58 57 57 57 59 59 59 58 51 51 74 71 71 66 69 70 67 70 71 64 63 58 65 66 58 64 69 69 66 72 65 66 76 79 77 77 76 76 79
58 58 58 58 58 58 58 57 57 58 59 59 60 55 47 69 66 69 70 70 72 73 73 75 74 65 63 64 65 60 57 49 62 70 71 70 60 70 76 74 73 75 74 76 76
58 57 57 58 58 58 57 56 57 59 60 60 54 49 50 72 69 73 75 73 73 74 73 81 73 65 64 55 49 51 47 51 60 69 69 66 59 70 75 72 69 70 71 75 75
58 57 57 57 57 57 56 56 57 58 60 61 60 50 60 67 75 78 76 78 72 71 69 68 60 56 53 49 41 47 49 54 55 63 65 62 60 69 72 71 71 70 70 72 73
58 57 57 57 57 56 54 48 50 49 52 53 61 60 70 77 80 75 78 76 73 66 55 59 52 47 54 56 58 57 54 54 60 66 62 62 63 68 70 67 67 67 69 69 71
58 56 56 56 56 56 53 45 58 62 52 59 63 64 72 75 67 72 77 66 62 54 58 53 48 58 62 62 60 58 54 53 59 65 61 56 59 62 64 64 65 67 66 68 68
56 56 56 56 56 51 47 52 63 65 52 63 62 65 68 71 68 69 73 67 60 54 54 49 57 65 63 59 58 57 54 54 55 61 58 56 52 56 63 66 68 67 69 70 70
56 56 56 56 52 50 51 62 62 64 44 56 63 67 69 71 64 77 76 69 60 56 56 53 63 62 60 59 60 51 62 61 59 54 44 56 40 49 59 61 64 66 65 65 67
55 56 56 55 47 48 64 61 62 60 33 63 65 76 69 63 66 68 77 68 60 60 57 54 56 56 55 58 62 57 64 60 58 50 45 48 42 48 54 56 60 63 66 69 66
55 56 56 52 48 53 60 61 61 45 37 59 66 63 61 63 65 68 69 71 67 57 60 57 64 61 59 64 63 64 57 52 48 45 37 45 44 42 51 56 60 63 62 65 62
55 55 54 56 51 59 59 57 42 36 61 57 58 62 60 59 60 62 60 57 53 46 45 55 55 61 65 56 59 56 44 34 33 33 34 49 44 45 57 62 63 61 61 61 61
54 53 51 55 53 57 56 48 35 53 57 66 64 61 55 61 60 60 56 50 55 53 48 44 42 56 62 56 49 48 45 34 29 30 36 47 40 48 61 62 64 66 64 64 62
53 48 51 57 59 58 51 39 44 53 62 61 61 55 55 58 60 58 54 53 56 55 45 43 48 61 63 61 57 52 45 50 39 37 32 38 46 54 59 60 62 63 62 62 63
46 45 52 65 62 55 46 43 53 64 64 62 49 55 47 52 53 52 55 60 59 59 57 50 42 56 60 62 61 54 58 43 37 29 26 36 41 43 51 54 58 58 58 60 60
44 47 61 65 62 50 40 46 60 67 65 58 53 51 50 49 50 48 52 59 60 58 56 49 43 45 52 48 47 50 45 45 42 36 28 28 36 52 55 57 56 59 62 62 60
43 42 63 65 49 46 44 55 55 64 66 63 58 55 50 50 48 48 49 53 61 58 49 48 42 35 43 51 54 49 44 44 35 33 32 29 33 56 58 57 56 58 61 60 59
40 44 60 62 44 43 51 59 59 60 60 58 54 56 53 47 42 49 51 58 59 53 47 48 38 32 38 43 47 44 51 49 45 42 37 33 37 55 56 55 56 52 53 55 55
41 41 50 55 54 49 47 50 53 60 60 59 55 55 49 45 46 44 48 55 58 55 57 52 40 37 32 38 41 40 46 50 44 35 37 38 38 49 52 49 50 50 52 52 52
42 46 49 43 49 47 50 52 51 53 59 58 50 50 46 38 41 41 45 47 53 55 47 43 35 38 41 45 46 44 44 45 42 42 35 41 42 48 46 47 47 50 52 51 51
44 43 47 45 48 49 48 46 49 51 52 49 47 48 47 40 41 36 40 40 40 45 40 40 33 37 36 44 44 41 46 46 46 47 46 45 44 50 53 47 49 48 50 48 50
51 52 46 44 46 44 46 49 50 51 53 53 49 46 44 44 46 42 42 44 42 38 38 37 34 33 30 39 39 33 42 45 46 48 46 40 43 45 44 47 46 46 46 47 49

GFSSW_sfc_temp_105.txt.gz
Temp
61 61 60 60 60 60 60 60 60 61 60 60 60 60 60 60 59 55 47 55 57 64 67 65 65 66 64 61 65 68 52 50 56 62 63 73 69 77 79 78 78 80 79 82 82
60 60 60 60 60 60 60 60 60 60 61 60 60 60 60 59 52 47 58 64 65 67 61 60 60 62 56 59 62 58 54 60 67 67 65 73 71 73 74 76 75 77 83 82 82
60 60 60 60 60 60 59 59 59 60 60 60 60 59 59 59 46 53 68 67 66 67 65 65 64 63 53 55 58 56 59 67 69 71 70 72 73 72 72 67 73 72 77 79 78
59 60 60 59 59 59 59 59 59 60 59 60 60 59 59 55 48 65 72 70 67 66 63 62 59 55 50 51 57 53 64 68 71 71 72 71 72 71 74 73 80 79 80 77 78
58 59 59 59 59 58 58 58 59 59 58 59 59 59 53 45 47 66 72 72 65 64 61 59 55 53 50 53 54 54 62 70 72 72 72 73 71 72 73 79 80 80 78 77 75
58 58 58 58 58 58 58 58 57 57 58 59 59 58 50 42 66 69 66 64 64 62 62 60 59 60 56 54 55 60 65 67 69 71 73 71 71 71 74 80 80 79 77 75 76
58 58 58 58 58 58 58 57 56 57 58 59 59 58 50 49 69 68 65 60 66 67 63 64 64 64 59 54 61 64 59 63 66 68 67 71 65 66 76 78 77 80 75 76 75
58 58 58 58 58 58 58 57 57 57 58 59 60 57 45 64 63 62 66 65 67 68 68 67 66 58 56 59 60 55 55 47 62 67 69 68 57 69 76 74 74 73 73 71 72
58 58 58 58 58 58 58 57 57 58 59 60 54 50 47 68 64 69 69 67 67 67 67 76 65 58 58 51 47 48 45 49 55 65 67 65 59 69 73 71 68 68 69 71 70
58 58 57 57 57 57 56 56 57 58 59 60 59 47 56 65 71 72 70 72 67 64 63 62 57 51 47 46 39 45 46 51 53 61 62 58 59 66 69 67 67 67 67 68 68
58 57 56 56 56 56 54 48 50 47 50 50 55 56 66 75 76 71 73 68 67 61 52 58 50 45 51 53 55 54 51 51 57 63 59 57 57 64 69 64 64 65 66 67 67
58 57 57 57 56 56 53 45 55 56 49 56 59 61 67 71 65 69 75 62 59 52 55 51 46 55 58 57 56 54 50 50 56 61 58 55 56 60 61 62 67 67 66 66 67
56 56 56 57 56 51 47 51 60 59 47 58 58 60 64 67 63 65 71 64 57 52 51 47 53 61 58 55 54 53 50 51 52 58 57 53 51 55 62 62 65 64 65 66 67
56 56 56 55 51 48 48 59 58 57 42 53 58 62 66 68 62 74 74 67 56 53 53 50 58 58 54 54 55 47 58 59 56 50 44 53 40 49 56 59 61 65 64 65 66
55 56 55 55 50 46 61 55 56 57 32 59 59 70 65 62 63 66 73 67 57 56 54 51 52 52 51 55 58 53 60 58 56 49 45 46 41 47 51 54 59 62 63 62 62
55 55 55 52 50 51 56 56 57 43 34 55 62 60 58 61 63 67 67 68 65 57 55 54 60 58 57 61 59 61 54 49 45 43 36 44 43 42 49 53 56 60 62 62 60
55 55 53 56 47 54 54 55 41 35 59 55 55 58 56 55 58 60 58 56 52 45 44 51 52 57 61 52 56 52 42 34 33 33 34 45 41 45 53 56 58 58 58 56 56
54 53 50 53 53 55 54 47 34 50 54 64 60 57 52 57 57 58 54 49 53 53 46 42 40 54 59 52 47 45 43 33 30 29 35 45 38 45 55 57 59 60 58 58 58
52 47 47 51 55 55 50 37 41 50 59 58 59 51 49 55 55 55 52 51 55 53 44 43 47 57 60 59 56 46 40 46 36 34 32 36 44 51 55 56 58 58 59 57 58
48 44 49 58 58 53 45 41 48 59 61 58 50 53 48 49 49 49 51 56 55 56 54 49 41 54 58 61 59 53 54 38 35 28 26 33 37 41 48 51 55 56 57 58 58
42 44 59 61 59 50 40 44 53 64 64 55 49 48 47 47 46 45 49 57 59 55 54 47 43 44 49 47 48 46 41 41 38 33 27 27 34 50 53 53 53 52 54 53 51
43 42 60 61 48 47 43 51 56 62 66 62 57 54 48 48 46 46 48 52 60 58 49 48 41 36 41 48 51 46 41 40 31 32 29 27 32 53 51 50 51 51 51 51 50
43 41 57 57 41 42 49 55 59 57 55 58 54 54 53 47 42 47 49 56 56 52 48 48 38 33 36 41 46 42 44 42 40 39 37 33 37 53 53 49 49 48 50 51 51
42 40 47 50 50 48 47 49 52 58 53 54 53 55 48 45 45 43 46 51 54 53 54 50 38 37 33 36 39 37 43 45 38 35 38 39 40 47 49 48 48 48 47 47 48
42 44 46 39 44 46 48 49 50 50 54 52 49 49 47 40 41 39 43 46 50 49 45 42 35 37 38 42 43 41 41 42 38 38 34 38 38 44 46 43 44 46 47 47 47
43 43 45 43 46 45 44 45 46 50 48 48 45 47 46 41 42 38 40 39 39 43 39 39 32 35 35 41 40 38 42 42 42 43 41 41 40 44 47 46 45 45 46 45 46
48 50 45 42 43 43 43 45 48 49 50 51 48 46 43 44 46 44 44 43 42 39 36 35 33 30 28 35 37 32 38 42 42 42 42 37 39 42 42 44 44 43 44 45 46

GFSSW_sfc_temp_111.txt.gz
Temp
61 60 60 60 60 60 60 60 60 60 60 60 61 61 60 60 60 59 52 64 63 65 66 68 68 70 71 69 73 73 64 60 64 65 70 77 77 82 85 82 82 84 85 87 85
60 60 60 60 60 60 60 60 60 60 60 60 60 60 60 60 57 53 64 63 64 65 64 67 65 68 66 67 71 68 62 64 72 74 74 77 78 79 77 78 80 84 88 83 84
60 60 60 60 60 60 59 59 59 60 60 60 59 60 60 60 53 64 68 66 66 67 67 68 69 69 64 66 68 68 61 70 71 75 76 77 77 78 75 74 78 77 83 82 83
60 60 60 60 60 60 59 59 60 60 59 59 59 59 59 57 55 71 72 69 67 68 66 66 66 63 62 61 68 62 68 70 73 77 76 74 77 74 74 78 80 82 83 86 83
60 60 60 60 59 59 59 59 60 59 59 58 58 59 57 49 55 71 70 69 68 65 64 65 63 65 60 63 65 63 68 70 74 76 72 72 73 72 73 78 80 82 81 83 85
59 59 59 59 59 59 59 58 58 58 58 58 58 59 52 45 70 69 70 68 67 65 63 66 66 69 65 63 63 68 68 69 72 74 73 70 71 71 73 78 75 77 77 81 82
58 58 59 59 58 58 59 57 57 58 59 59 59 58 50 54 70 69 68 66 67 65 63 70 71 69 68 63 68 68 62 67 70 69 71 71 64 67 75 77 73 73 77 78 80
58 58 58 58 58 58 58 57 58 59 59 59 60 57 47 66 67 65 69 64 67 69 69 72 73 71 67 69 65 62 63 57 68 68 69 69 60 72 76 70 71 72 72 74 78
58 58 58 58 58 58 57 57 58 59 59 60 56 52 49 68 62 69 71 63 65 67 71 74 71 67 66 60 57 58 53 55 61 68 69 66 62 70 71 65 61 66 68 74 78
58 57 57 57 57 57 56 56 58 57 59 61 58 47 57 65 69 68 72 69 66 66 66 66 64 60 61 58 48 52 53 56 57 64 67 63 63 70 68 64 59 66 70 74 77
58 57 57 57 57 56 55 55 50 48 52 51 54 56 63 72 73 68 71 69 68 64 56 61 56 52 58 60 61 60 57 58 62 69 64 63 64 67 71 68 62 65 69 72 75
57 57 57 56 56 56 54 48 57 59 52 55 57 57 64 68 63 65 73 64 60 55 60 56 52 60 63 62 58 58 57 58 62 67 64 64 62 68 71 69 69 69 71 74 77
56 56 56 56 56 54 52 52 63 62 51 58 56 56 60 65 62 63 69 65 61 56 57 55 59 64 59 59 55 57 56 58 59 63 66 63 60 64 70 70 71 71 73 74 75
56 55 56 55 53 53 51 61 62 60 48 54 54 60 64 67 61 73 72 69 62 57 58 58 65 61 59 58 60 53 62 62 59 58 54 62 53 61 66 65 68 69 67 69 71
55 55 55 55 51 49 58 59 60 58 35 60 57 71 66 64 67 65 75 71 61 59 59 57 59 59 57 60 63 59 64 62 62 59 57 57 56 62 62 62 66 69 68 69 69
55 55 55 54 52 56 60 59 59 47 34 55 61 58 59 63 65 67 67 73 71 61 60 62 66 65 64 64 64 65 60 57 57 58 49 57 57 58 59 62 65 67 66 64 67
56 56 54 55 51 59 57 55 45 35 58 54 55 59 60 58 61 63 60 59 57 50 50 56 59 66 66 61 62 60 56 48 45 46 47 54 54 59 59 61 63 64 64 64 64
54 53 55 56 57 59 57 51 36 49 50 62 55 57 54 59 59 60 58 55 62 60 53 48 45 58 65 63 60 58 57 51 39 42 48 52 50 56 61 62 64 66 66 66 64
52 56 53 55 57 56 49 42 45 49 56 54 55 47 50 57 58 58 57 57 60 61 52 49 50 60 62 64 64 56 54 56 48 45 49 52 53 59 62 61 63 63 62 60 60
50 49 51 59 57 53 47 45 51 58 57 56 45 46 44 52 52 55 54 60 58 63 65 56 47 57 60 64 61 60 60 50 53 40 40 46 48 53 56 58 60 58 58 58 60
50 43 57 58 58 52 44 49 54 60 60 54 47 43 49 48 54 53 54 57 61 58 62 57 53 50 56 52 54 54 53 51 52 48 43 42 49 56 58 59 57 57 58 58 60
47 41 57 57 47 49 45 52 53 57 61 58 53 46 47 49 48 49 50 53 59 61 55 53 50 46 48 53 55 54 51 53 45 42 45 45 47 58 59 59 59 59 58 59 60
42 45 58 55 41 44 50 48 54 54 55 55 51 50 49 44 41 48 49 54 57 56 54 53 42 36 42 50 53 50 50 49 48 48 45 44 48 57 57 58 59 59 59 59 60
43 38 48 50 49 44 43 46 48 57 55 51 48 51 48 45 47 46 47 51 54 54 55 57 44 39 43 44 48 45 47 50 49 42 44 47 49 51 54 56 57 58 58 59 59
44 42 47 41 44 45 46 43 43 45 52 51 48 46 46 40 43 44 48 51 52 51 50 52 44 46 46 47 48 47 47 47 47 47 43 47 48 54 56 57 57 58 58 58 58
42 43 47 44 46 43 44 42 41 44 45 45 45 45 46 40 40 39 46 49 49 50 47 48 41 46 41 45 46 44 47 48 48 48 48 49 48 59 56 57 55 56 57 56 55
48 50 45 44 44 42 43 43 44 43 46 47 45 44 41 43 45 47 50 50 51 49 45 45 44 42 38 41 42 40 46 48 48 49 50 45 52 55 52 53 54 56 55 54 53

GFSSW_sfc_temp_114.txt.gz
Temp
61 61 61 61 60 60 60 60 60 60 60 61 61 61 61 61 60 67 64 73 73 69 65 78 79 80 82 81 84 85 73 69 74 76 79 88 83 91 92 88 89 91 91 92 95
62 61 60 60 60 60 60 60 60 60 60 60 60 60 60 60 65 67 75 69 67 68 76 77 75 78 77 78 80 76 70 72 82 84 81 86 86 87 86 85 84 85 94 92 93
61 61 60 60 60 60 60 60 60 60 60 60 60 60 60 63 65 75 71 70 66 69 79 81 81 78 74 78 77 76 70 79 81 84 84 82 85 91 85 83 83 82 87 90 90
60 61 61 60 60 60 60 60 60 60 60 60 59 59 60 66 62 79 71 68 67 77 78 77 77 73 72 71 78 71 77 78 81 83 81 80 85 85 86 87 89 86 87 90 90
60 60 60 59 59 59 59 59 59 60 59 59 59 59 62 61 67 82 71 70 73 74 76 76 74 74 70 74 76 72 76 78 81 81 82 84 81 82 85 88 88 86 85 86 88
58 59 59 59 59 58 58 58 58 58 59 59 59 59 60 54 81 79 80 74 76 75 77 79 75 79 74 74 73 76 75 78 79 80 81 78 79 82 85 89 85 85 84 88 88
58 58 59 58 58 58 58 57 57 58 59 60 60 60 56 63 80 81 80 77 79 76 74 80 80 75 76 71 78 76 69 73 75 77 77 82 74 76 84 87 85 84 85 81 85
58 58 58 58 58 58 58 57 57 58 60 60 60 58 55 77 80 77 79 75 77 78 78 82 81 77 73 78 72 69 70 63 74 75 77 76 65 78 85 84 82 82 79 80 82
58 57 57 58 58 58 57 57 58 59 60 60 58 57 59 71 68 77 80 73 73 75 78 80 78 72 73 67 65 67 61 62 67 78 75 73 67 79 85 83 80 83 80 80 83
58 57 57 57 57 57 56 56 59 58 61 63 62 51 63 69 76 78 81 77 72 73 71 71 72 67 67 65 55 60 61 65 64 73 73 71 69 77 80 80 80 81 84 78 79
58 57 57 56 57 56 56 59 55 51 53 59 62 64 70 77 78 75 78 74 74 72 65 69 63 59 65 67 68 67 64 63 68 74 71 69 70 75 79 78 78 80 81 81 84
57 57 57 56 56 56 56 54 65 66 58 64 65 65 73 74 69 73 78 69 67 62 69 64 58 68 70 69 66 65 62 63 69 74 71 69 69 75 78 79 80 79 78 79 80
56 56 56 56 56 56 55 60 72 71 59 65 71 64 68 72 68 68 74 73 66 64 64 61 65 70 67 65 63 64 61 63 64 68 72 69 66 70 78 80 80 82 82 81 80
55 55 55 55 57 63 61 70 73 70 54 61 61 65 69 71 64 78 77 73 69 63 65 65 72 67 65 64 66 59 69 66 65 63 57 70 57 67 73 74 77 80 81 82 81
55 56 55 55 55 54 66 72 72 66 40 65 65 78 74 68 73 71 79 74 65 65 66 62 65 64 63 65 69 64 71 67 66 64 63 63 61 67 73 70 74 78 80 82 83
55 55 55 56 60 62 69 69 66 49 38 61 68 63 63 67 72 75 71 77 76 68 67 67 74 71 69 71 71 73 68 67 66 64 54 61 62 62 68 72 75 77 74 74 76
56 56 55 59 57 71 69 60 48 42 63 60 62 65 62 62 67 66 64 62 61 56 56 62 64 71 73 66 70 68 62 52 50 52 51 65 60 62 70 73 75 73 72 74 73
54 52 60 65 67 65 64 54 40 55 57 66 63 59 56 64 64 65 62 59 66 64 59 54 50 65 70 67 64 64 64 55 44 48 54 63 55 67 71 73 74 74 72 73 71
52 65 65 68 67 65 56 43 49 56 63 61 62 55 50 50 49 62 62 61 65 65 54 55 55 69 70 71 71 65 59 69 57 58 53 60 62 66 70 70 72 71 70 69 69
56 59 63 68 64 58 52 47 56 64 65 62 52 56 46 45 44 53 60 65 64 69 71 62 53 64 67 71 71 66 71 56 60 44 44 54 57 61 64 66 68 69 67 68 69
58 54 64 64 60 54 49 54 59 66 66 59 55 50 44 43 46 51 58 65 69 68 70 66 60 55 62 60 60 62 61 63 61 58 47 46 53 69 68 68 67 69 69 70 70
50 50 65 63 45 49 50 55 49 58 63 60 60 54 47 40 39 48 53 63 71 69 61 67 59 49 55 62 63 61 60 62 51 50 56 54 53 69 69 70 69 68 69 70 71
42 52 69 59 43 49 55 56 54 49 53 57 55 57 52 45 38 43 56 58 65 67 63 62 55 42 47 56 61 58 59 59 58 59 51 48 50 66 68 68 70 68 69 69 69
44 47 59 53 55 48 48 50 51 56 50 56 53 54 48 42 45 39 49 55 59 64 61 63 53 49 45 47 58 53 57 60 58 47 50 51 44 56 61 63 66 67 68 70 69
47 48 52 45 50 52 51 51 49 49 56 56 53 48 47 40 40 36 47 50 57 55 64 62 51 54 52 54 57 57 56 57 56 57 51 56 55 59 63 64 66 67 67 67 67
42 41 49 49 53 50 49 49 46 47 42 49 45 48 51 44 40 37 43 48 53 58 56 57 50 53 47 52 54 53 55 56 56 56 55 56 55 66 66 68 65 65 65 66 65
53 52 44 44 44 49 48 48 47 48 43 47 47 43 44 44 51 51 46 52 57 58 56 56 53 50 46 51 51 48 55 56 56 57 57 53 58 63 60 61 62 63 64 62 61

GFSSW_sfc_temp_117.txt.gz
Temp
63 62 61 61 61 61 61 61 61 61 61 61 61 61 61 61 61 68 67 77 77 70 68 84 85 86 87 85 89 90 75 71 76 79 84 95 91 95 96 94 95 96 95 97 81
62 62 61 61 61 60 60 60 60 61 61 61 61 61 61 61 66 69 79 74 70 70 76 79 81 84 81 82 85 81 73 75 85 87 86 92 93 92 91 88 89 92 95 97 98
61 61 61 61 61 60 60 60 60 60 61 60 60 60 61 64 67 79 74 72 69 72 82 86 88 84 78 84 83 80 72 82 85 89 90 90 91 94 90 86 91 88 91 92 94
61 61 61 61 60 60 60 60 61 61 60 60 60 60 61 68 62 81 71 70 69 77 79 82 82 78 76 76 83 76 81 83 85 88 87 85 90 88 90 92 96 95 92 94 92
59 60 60 60 59 59 59 59 59 59 59 59 60 60 63 64 69 82 71 71 75 79 78 79 78 79 74 79 81 77 80 84 86 86 87 88 83 85 87 95 97 96 89 90 91
59 59 59 59 59 59 59 58 58 58 59 59 60 60 60 55 86 91 86 77 80 79 80 83 81 84 80 79 78 82 81 82 84 84 85 82 82 85 88 94 94 92 90 90 88
59 58 58 58 59 58 58 58 58 58 59 60 61 62 58 65 86 89 88 82 85 83 80 85 87 81 81 76 83 81 74 78 79 82 80 84 76 78 88 91 90 87 91 91 90
58 58 58 58 58 58 58 58 58 59 60 61 61 59 54 82 84 83 87 84 87 86 84 87 88 82 80 83 79 74 74 67 78 79 81 80 68 81 88 87 87 89 86 90 89
58 58 58 58 58 58 58 57 58 59 60 61 61 59 63 77 74 83 85 80 82 83 83 85 83 76 78 71 69 71 63 66 71 81 78 76 70 81 88 86 84 86 88 87 89
58 57 57 58 57 57 57 57 61 59 61 65 65 53 65 71 80 81 85 83 77 77 75 76 75 70 72 69 59 64 65 67 67 76 77 74 73 79 84 84 83 86 87 88 88
58 57 57 57 57 57 59 67 63 51 55 61 65 66 76 81 85 80 83 79 77 73 66 71 65 62 68 71 73 72 69 68 72 78 75 73 73 77 82 82 83 85 86 87 88
57 57 57 57 57 56 58 60 70 73 61 66 67 71 76 81 72 77 84 71 70 64 70 67 62 73 76 74 70 70 67 67 72 77 75 73 71 77 80 81 83 84 84 86 88
56 56 56 56 56 60 64 66 78 75 59 67 74 70 73 77 71 74 77 74 69 66 68 65 70 75 73 70 67 67 66 66 66 72 75 72 69 73 79 82 84 85 86 87 87
56 56 56 56 58 71 67 78 80 76 53 63 71 74 77 76 67 83 80 75 72 67 70 69 76 72 70 67 70 62 72 70 68 65 59 70 57 68 74 76 80 83 85 86 87
56 56 56 55 59 61 73 79 78 72 38 71 72 84 78 69 74 72 82 76 68 69 70 66 69 69 66 67 72 66 74 71 69 65 64 64 56 63 72 72 77 81 83 86 88
56 56 55 61 67 68 74 75 70 50 39 63 73 68 69 69 70 76 74 78 78 71 72 71 78 75 72 74 74 75 71 70 69 67 54 62 54 56 61 64 77 81 84 84 87
55 55 56 63 62 79 77 66 50 43 65 62 65 67 67 65 65 67 65 63 61 57 59 66 70 75 76 68 74 72 65 54 50 53 52 67 59 59 60 58 76 79 78 79 81
54 53 60 71 73 71 70 56 41 55 58 68 66 64 51 61 65 64 61 59 65 66 62 56 54 68 74 69 67 68 65 56 44 47 55 66 56 64 68 70 78 79 79 79 79
52 68 70 76 77 69 58 46 49 56 63 62 66 60 60 61 51 49 54 60 64 67 58 57 58 73 73 74 74 66 62 71 58 57 54 59 65 70 74 74 75 74 75 74 75
58 63 69 77 73 60 48 46 56 65 67 64 52 57 51 55 46 41 45 59 61 70 72 63 53 68 71 74 74 69 71 57 62 42 41 52 51 61 67 69 72 71 71 73 75
59 59 69 73 63 48 46 54 61 68 68 61 57 51 48 49 47 43 43 54 68 69 71 65 58 59 67 64 63 66 60 61 62 61 49 43 46 63 66 72 71 72 73 74 74
55 50 71 67 43 46 50 55 50 61 64 58 59 57 52 48 45 42 42 47 55 72 64 67 59 52 59 69 72 70 65 58 51 46 56 55 56 67 55 75 74 74 74 76 76
47 57 72 69 40 49 49 49 55 51 56 56 56 59 50 46 43 47 50 57 62 63 65 66 58 45 47 49 65 61 64 64 58 58 47 45 50 70 69 73 74 73 73 74 75
47 47 59 54 54 46 44 49 50 60 57 58 52 56 54 46 48 46 47 50 56 65 67 67 60 53 46 53 60 56 61 63 57 40 47 46 45 58 65 66 69 72 73 75 74
45 47 47 41 45 48 50 54 51 48 58 52 52 54 50 42 44 40 41 45 56 61 69 64 53 59 49 58 56 56 60 60 58 59 52 57 56 58 61 61 66 70 72 72 72
40 39 42 47 50 47 49 50 49 49 51 48 42 49 48 39 47 39 40 42 56 64 61 60 52 58 50 57 54 46 59 61 61 61 61 61 58 66 61 68 68 68 69 69 68
53 51 42 42 45 43 42 45 48 50 49 46 47 49 42 42 49 52 49 48 51 56 55 53 56 52 47 55 56 49 57 59 61 63 63 57 64 70 66 67 68 69 69 68 67

GFSSW_sfc_temp_123.txt.gz
Temp
62 62 62 62 62 62 62 61 61 61 61 62 62 62 62 62 61 58 52 61 65 69 71 71 73 74 72 66 71 71 58 54 58 61 66 76 78 88 92 89 89 91 83 81 76
61 61 61 60 60 61 61 61 61 61 61 61 62 62 61 61 55 52 65 71 71 72 69 66 65 71 63 64 65 62 56 59 69 71 69 75 77 81 83 83 87 89 78 80 78
61 61 60 60 60 60 60 60 61 61 61 61 61 61 61 61 51 59 73 72 72 74 72 73 71 69 61 65 63 61 59 68 71 75 77 76 78 81 77 77 79 82 75 74 75
60 60 60 60 60 59 59 59 60 61 61 61 61 60 60 58 44 68 73 73 73 74 71 69 65 58 56 59 66 58 68 71 73 77 76 74 78 78 78 76 84 86 78 72 71
60 60 60 59 59 59 59 59 59 60 60 60 60 60 57 50 50 72 74 72 73 72 68 66 60 59 56 62 64 64 67 72 76 76 76 77 76 76 76 82 85 86 83 72 71
59 59 59 58 58 58 58 58 58 58 59 60 60 60 52 42 67 75 77 71 72 69 68 67 64 67 62 63 61 67 68 71 73 72 76 74 74 74 79 81 82 84 79 70 71
58 58 58 58 58 58 58 57 57 58 59 60 61 59 50 49 71 72 70 71 74 72 69 72 73 69 69 61 69 68 63 68 71 71 68 73 67 71 79 79 78 76 77 81 73
58 57 57 57 57 58 58 57 58 58 59 60 61 56 46 64 66 64 66 69 76 78 75 78 77 71 65 67 67 62 58 54 64 69 72 68 58 70 77 76 74 78 78 79 79
58 57 57 57 57 57 57 57 58 59 60 60 55 52 48 68 59 63 67 69 74 76 77 81 74 67 66 58 53 54 48 52 59 70 68 67 60 70 75 74 73 74 74 76 76
58 57 57 57 57 57 56 56 58 59 59 62 60 49 54 58 70 73 70 71 70 73 69 68 65 59 54 52 43 48 51 56 56 65 67 61 62 68 72 72 70 71 77 75 74
57 57 56 57 57 56 54 52 51 45 53 50 52 53 63 73 77 73 74 71 69 68 56 63 55 49 54 57 60 60 58 56 63 69 64 63 61 65 70 70 69 69 70 70 74
57 56 56 56 56 56 52 45 53 61 51 56 60 59 65 70 62 67 76 63 61 56 62 57 50 59 63 62 60 59 56 57 63 70 64 60 60 65 68 68 71 71 71 71 70
56 56 56 56 55 52 50 54 63 64 50 57 63 59 59 66 59 61 71 65 60 57 58 52 57 64 62 60 58 58 55 57 57 65 65 61 54 60 68 70 71 70 71 72 71
55 55 55 55 51 53 51 64 68 68 42 51 59 65 65 64 58 71 72 67 61 55 59 56 63 62 60 58 61 53 64 64 62 56 46 59 43 55 62 65 67 71 68 69 71
55 55 55 55 49 45 58 63 63 58 25 59 66 76 69 58 65 64 74 69 57 58 59 54 58 57 57 60 65 59 67 63 61 53 47 53 44 51 60 60 62 63 66 66 69
55 55 55 52 52 53 58 60 58 37 28 52 66 64 60 60 62 67 66 72 69 61 62 59 69 65 62 68 67 69 62 58 57 49 39 49 47 48 53 59 60 62 64 67 67
54 54 53 55 45 58 61 54 35 29 55 52 54 61 58 52 54 53 55 58 52 47 47 57 59 67 70 62 67 62 50 37 34 36 38 53 49 53 56 61 61 59 63 65 66
53 52 53 57 59 60 53 41 29 44 45 56 56 59 52 55 52 48 45 44 58 55 49 45 45 60 69 64 57 57 52 38 31 35 43 57 46 51 58 57 59 60 61 64 64
52 54 54 60 59 63 46 32 35 43 52 51 53 44 47 55 52 49 46 46 47 51 47 47 48 67 69 71 65 57 51 56 45 48 41 46 50 57 60 57 59 59 62 61 65
47 49 53 57 53 49 40 34 40 52 53 51 41 45 41 48 46 42 46 49 51 52 56 50 44 62 67 69 68 62 63 48 43 34 31 42 49 46 50 48 52 58 58 60 62
49 45 57 58 53 44 33 40 45 52 52 46 40 39 42 44 43 39 42 47 53 53 54 51 43 47 55 55 56 56 54 53 47 42 32 31 36 51 50 54 48 53 56 58 58
46 37 59 60 39 39 36 38 45 46 51 46 48 46 41 44 42 42 42 49 56 55 48 52 43 38 43 54 63 62 55 52 37 38 39 35 35 50 51 52 52 55 57 61 60
40 43 58 53 32 33 39 40 44 41 40 43 42 46 46 42 39 46 50 54 55 50 47 51 42 35 38 49 58 56 59 56 51 44 39 34 36 54 53 52 55 55 55 64 64
41 35 44 45 42 38 35 38 38 45 41 44 44 49 44 41 45 44 45 54 57 53 53 49 43 40 35 45 52 52 56 56 48 37 41 41 41 46 48 50 53 54 59 61 64
42 38 42 33 37 40 43 41 35 36 44 49 45 43 40 36 41 40 48 49 53 55 50 46 42 45 48 48 51 54 57 54 49 49 43 45 44 45 48 50 52 53 62 63 61
38 37 40 37 41 40 42 36 37 38 42 42 38 41 44 39 41 40 44 46 45 49 45 49 41 44 43 48 51 49 54 55 53 50 52 53 46 53 54 54 52 55 60 60 62
47 47 40 39 40 37 38 38 38 40 46 47 42 41 38 40 43 45 47 48 44 44 45 46 44 39 34 45 46 42 47 50 54 52 47 44 48 53 52 52 52 55 60 59 59